Regional Weather Roundup
Issued by NWS

Home | Current Version | Previous Version | Graphics & Text | Print | Product List | Glossary On
Versions: 1 2 3 4 5 6 7 8 9 10 11 12 13 14 15 16 17 18 19 20 21 22 23 24 25 26 27 28 29 30 31 32 33 34 35 36 37 38 39 40 41 42 43 44 45 46 47 48 49 50
000
ASUS43 KTOP 281108
RWRKS

WEATHER ROUNDUP FOR KANSAS
NATIONAL WEATHER SERVICE GOODLAND KS
600 AM CDT THU APR 28 2016

NOTE:  "FAIR" INDICATES FEW OR NO CLOUDS BELOW 12,000 FEET WITH NO
SIGNIFICANT WEATHER AND/OR OBSTRUCTIONS TO VISIBILITY.

KSZ001>006-013>018-027>032-041>047-281200-
NORTHWEST KANSAS

CITY           SKY/WX    TMP DP  RH WIND       PRES   REMARKS
GOODLAND       CLOUDY    37  32  82 NW13      29.92S WCI  29
HAYS           CLOUDY    41  27  56 NW14      29.93R
HILL CITY      CLOUDY    37  31  78 NW10      29.93R WCI  30
RUSSELL        PTCLDY    39  32  76 NW16      29.90R WCI  30
$$

KSZ061>065-074>080-084>089-281200-
SOUTHWEST KANSAS

CITY           SKY/WX    TMP DP  RH WIND       PRES   REMARKS
DODGE CITY     CLOUDY    42  37  82 N12       29.93R
ELKHART          N/A     40  34  80 N6          N/A
GARDEN CITY    CLOUDY    40  35  83 N10       29.93R WCI  33
GREAT BEND     CLOUDY    43  30  61 NW9       29.93R
LIBERAL        PTCLDY    46  36  66 NE8       29.93R
PRATT          CLOUDY    41  35  80 NW8       29.92S
$$

KSZ066>073-081>083-090>101-281200-
SOUTHEAST KANSAS

CITY           SKY/WX    TMP DP  RH WIND       PRES   REMARKS
CHANUTE        CLOUDY    48  39  71 W9        29.88R
COFFEYVILLE    CLEAR     50  41  71 W3        29.89R
HUTCHINSON     CLOUDY    46  36  68 NW12      29.91R
MEDICINE LODGE   N/A     47  40  76 NW6       29.93R
NEWTON         PTCLDY    45  34  65 W13       29.92R
PARSONS        CLOUDY    47  41  80 W6        29.90R
WICHITA INTL   CLOUDY    49  37  63 NW15      29.90R
WICHITA JABRA  CLOUDY    47  39  74 NW9       29.90R
WICHITA MCCONL CLOUDY    48  37  66 NW10      29.90R
WINFIELD       PTCLDY    45  40  82 NW6       29.91R
$$

KSZ007>012-019>026-033>040-048>060-102>105-281200-
NORTHEAST KANSAS

CITY           SKY/WX    TMP DP  RH WIND       PRES   REMARKS
CONCORDIA      MOCLDY    38  33  82 W10       29.86R WCI  31
EMPORIA        CLEAR     43  36  76 W10       29.86R
LAWRENCE       CLOUDY    46  40  79 W13       29.81R
MANHATTAN      CLEAR     43  35  73 W10       29.84R
MARYSVILLE     CLOUDY    43  41  93 NW14G21   29.82R
OLATHE IND     MOCLDY    45  39  79 W7        29.81R
OLATHE EXE     MOCLDY    44  38  79 W5        29.80R
SALINA         CLEAR     42  35  76 NW15      29.88R
TOPEKA BILLARD MOCLDY    46  39  76 W8        29.83R
TOPEKA FORBES  CLOUDY    46  38  73 W8        29.82R
$$



USA.gov is the U.S. government's official web portal to all federal, state and local government web resources and services.